Theta_e
308 308 309 311 312 313 313 315 316 315 316 317 317 318 317 316 316 315 316 317 317 318 318 318 317 317 316 316 317 318 320 321 322 323 323 324 324 325 325 326 326 327 327 328 329 329 330 330 329 329 330 329 329 329 329 329 329 329 328 328 329 329 329
307 308 310 311 312 312 313 314 316 316 316 317 317 316 313 313 312 311 310 310 311 312 313 313 312 312 312 312 312 314 315 317 318 320 320 320 321 322 322 323 324 325 326 327 327 327 328 328 328 328 330 329 328 329 328 328 328 328 328 328 328 328 329
307 308 309 311 312 313 313 313 316 317 316 317 317 313 309 309 308 307 307 306 306 306 306 306 306 305 306 306 307 309 310 312 313 315 316 317 318 319 319 320 321 322 324 325 324 325 326 327 327 327 327 327 327 327 328 328 328 327 327 327 327 327 328
310 308 309 311 312 313 312 313 316 317 316 317 317 312 307 306 306 307 308 306 305 305 304 304 303 303 303 304 305 306 307 308 310 310 311 312 314 315 316 317 318 319 320 322 322 322 324 325 325 325 326 325 325 326 327 328 327 326 326 326 327 328 328
312 309 308 309 310 311 310 312 315 317 317 317 316 312 307 306 307 308 309 307 305 305 304 303 303 303 303 303 304 305 305 306 307 308 309 309 310 312 313 313 315 316 316 317 318 319 320 322 323 323 324 323 324 325 325 326 326 326 326 326 327 328 328
313 311 309 307 308 308 308 310 313 316 316 316 315 312 308 308 309 309 310 309 306 305 305 304 304 303 303 304 305 305 305 306 306 307 307 307 307 308 309 310 311 312 313 313 314 315 316 318 320 321 321 321 322 323 323 324 325 325 325 326 327 327 327
313 312 310 309 307 306 306 307 309 312 312 312 312 311 309 310 311 311 310 310 308 306 305 305 304 303 303 304 305 305 305 306 306 306 307 306 306 306 306 307 308 309 309 310 311 312 313 314 316 317 318 319 320 321 321 322 324 324 325 326 326 325 325
315 314 311 310 309 307 306 306 307 308 308 308 309 310 310 311 312 312 311 310 310 307 305 305 305 304 303 304 305 304 304 305 305 306 306 306 306 306 305 305 306 307 307 308 308 309 310 311 313 314 315 316 316 318 319 319 320 321 321 322 324 324 324
317 316 313 311 310 309 307 306 306 307 307 307 308 310 311 312 312 312 311 311 310 308 306 305 305 304 303 304 305 304 304 305 305 306 306 306 306 306 305 305 305 306 306 306 307 307 308 308 309 311 312 314 314 315 315 316 316 317 318 320 321 322 324
318 316 313 311 310 310 309 307 306 306 307 308 308 309 310 311 312 313 312 311 311 309 307 306 305 305 304 304 304 305 305 305 305 305 305 306 305 305 305 305 305 305 305 305 306 306 306 307 308 308 309 311 313 313 313 314 315 316 317 318 318 319 322
317 315 313 311 311 311 311 309 307 307 307 308 308 308 309 311 312 313 312 312 311 309 307 306 306 305 305 304 304 304 304 304 305 304 304 304 304 304 304 304 305 305 305 305 305 305 306 306 307 307 308 308 310 311 312 312 313 315 316 316 317 318 319
316 314 312 312 311 311 311 311 309 307 307 308 308 309 309 310 312 313 313 312 311 310 307 306 306 305 305 304 304 304 303 304 304 304 304 303 303 303 304 304 304 304 304 304 305 305 305 305 306 306 307 307 308 309 310 311 311 312 314 315 316 317 317
316 314 312 311 311 311 312 312 311 309 308 308 308 308 309 309 311 312 312 312 311 310 308 306 306 306 305 305 305 304 303 303 303 303 303 303 302 303 303 303 304 304 304 304 304 304 304 304 305 305 306 306 306 307 308 309 309 310 312 312 313 313 314
315 314 313 312 312 311 312 312 313 311 309 308 308 308 309 309 310 312 312 312 311 310 307 306 306 306 305 305 304 303 302 302 303 302 302 302 302 302 302 303 303 304 304 304 304 304 304 304 304 305 305 305 306 306 306 307 308 309 310 310 311 311 311
314 314 313 312 312 312 312 313 313 312 310 309 309 308 309 309 311 312 312 312 311 309 307 306 306 306 305 304 303 302 302 302 302 302 302 301 301 301 301 302 302 303 303 304 304 304 304 304 304 304 304 304 304 305 305 305 306 307 308 308 309 309 309
314 314 313 313 313 313 312 313 314 314 312 311 310 309 309 310 311 312 312 311 310 308 307 306 306 305 305 304 303 302 302 302 302 301 301 301 300 300 301 301 301 302 302 303 304 304 304 304 304 303 304 304 304 304 304 304 305 305 306 307 307 307 308
314 314 314 314 314 313 313 313 313 314 313 312 311 310 310 310 311 311 311 311 309 307 306 306 306 305 305 304 303 302 302 301 301 301 301 300 300 300 300 301 301 301 301 301 302 303 303 303 303 303 303 303 303 303 303 303 304 304 305 305 306 306 306
316 315 315 315 315 314 314 313 314 314 314 312 311 311 310 310 311 311 311 311 309 307 306 306 306 305 304 303 302 301 301 301 301 300 300 300 300 300 300 300 300 300 300 300 301 301 302 302 302 302 302 302 303 303 303 303 303 303 304 304 305 305 305
317 316 316 315 315 315 314 314 314 314 314 312 311 311 311 311 311 311 311 310 308 306 306 306 305 304 303 302 301 301 300 300 299 299 299 299 299 299 299 299 299 300 300 300 300 300 300 301 300 301 301 301 301 302 302 303 303 303 303 303 303 304 304
318 318 317 316 315 315 314 314 314 313 312 311 311 311 311 311 311 311 311 309 307 306 306 305 304 303 302 301 301 300 299 298 297 296 296 296 297 298 298 298 299 299 299 299 300 300 300 300 300 300 300 301 301 301 301 301 302 302 302 302 302 303 303
318 318 318 317 315 315 315 314 314 313 312 310 311 311 311 311 311 311 310 308 306 306 305 305 303 303 302 301 300 299 297 295 294 294 294 295 295 296 296 297 297 298 298 298 298 298 299 299 300 300 300 300 300 300 300 300 301 301 301 301 302 302 302
317 318 318 317 316 315 315 314 314 313 312 311 311 311 311 311 311 310 308 307 307 306 305 304 303 302 301 300 299 297 295 293 293 293 294 294 294 294 295 295 296 295 295 294 294 294 295 296 297 298 299 299 299 299 299 300 300 300 301 301 301 301 302
316 317 317 316 316 316 315 314 314 313 312 311 311 311 310 311 311 309 308 307 306 305 304 304 303 302 300 299 297 294 293 292 293 293 294 294 294 294 294 295 295 293 293 293 293 293 293 293 294 295 296 297 298 299 299 299 299 299 300 300 301 301 301
316 316 316 316 315 315 314 314 312 312 311 310 310 310 310 310 310 308 307 306 305 304 303 302 301 300 298 296 294 292 292 293 293 293 294 294 294 294 294 294 294 294 293 294 294 294 293 293 293 294 294 295 295 296 297 298 299 299 299 299 300 300 300
315 316 316 315 315 314 313 312 311 310 310 309 309 310 310 309 308 307 306 304 303 303 302 301 300 297 295 294 292 292 292 293 293 294 294 294 294 294 294 294 294 294 294 293 293 294 294 294 294 294 294 294 294 294 295 296 297 297 298 299 299 299 299
315 315 315 315 314 313 312 311 310 309 309 309 309 310 309 308 307 306 305 303 303 302 301 300 298 295 294 293 293 293 292 292 293 293 293 293 293 293 293 293 294 294 294 293 293 294 294 294 294 294 294 294 294 294 294 294 295 295 296 297 298 298 299
314 315 314 314 314 312 311 310 309 309 308 308 308 309 308 307 306 305 304 303 303 301 300 298 296 294 294 294 293 292 292 292 292 292 292 292 292 292 292 293 293 293 293 293 293 294 294 294 294 294 294 294 295 295 295 295 295 295 295 295 296 297 297
313 314 314 314 313 312 311 309 309 308 308 308 308 307 307 306 305 304 303 303 302 300 298 296 294 294 295 294 293 292 292 291 292 292 292 292 292 292 292 292 292 293 293 293 293 293 292 292 292 293 293 293 294 294 295 295 295 295 295 296 296 296 297
312 313 313 313 312 311 310 309 308 308 307 307 306 307 306 305 304 303 303 302 301 299 297 295 294 295 295 294 293 293 292 292 292 292 292 292 291 291 292 292 292 293 293 293 293 292 291 291 291 292 292 292 292 293 293 294 294 294 295 295 295 296 296
311 312 312 312 312 311 309 309 308 307 307 306 305 306 305 304 304 304 303 301 300 298 295 294 295 295 294 294 293 293 292 293 293 293 292 292 292 292 292 291 291 292 292 293 292 291 291 290 290 291 291 291 292 292 292 292 293 293 293 293 293 294 294
310 311 312 312 312 311 309 308 307 306 306 305 305 305 305 304 304 303 302 300 298 296 295 295 295 294 294 294 294 293 293 293 293 293 293 293 292 292 292 291 291 291 292 292 292 291 290 290 290 291 291 291 291 291 291 291 291 292 292 292 292 293 293
309 311 311 311 312 311 309 307 306 305 305 304 304 304 304 304 302 301 301 299 297 296 296 296 295 295 294 294 294 293 293 293 293 293 293 293 293 293 292 292 291 291 291 291 291 290 290 290 290 290 290 290 291 291 291 291 291 291 291 291 292 292 293
308 310 311 311 311 310 308 307 305 304 304 305 305 304 303 303 301 300 299 298 297 297 297 297 296 295 294 295 295 294 292 293 294 294 293 293 293 293 293 292 292 292 291 291 290 289 289 289 289 289 290 290 290 290 290 290 290 290 290 290 291 291 291
308 310 310 310 310 309 307 306 305 304 304 304 304 303 302 302 301 300 299 298 297 297 297 296 295 295 295 295 295 294 293 292 293 293 293 293 293 293 293 292 292 292 291 290 290 289 289 288 288 288 289 289 289 289 289 289 289 289 289 289 290 290 290
308 309 310 310 309 307 306 305 304 303 303 303 303 302 302 300 299 298 298 298 298 297 297 296 295 295 295 295 294 293 292 292 291 291 292 292 293 293 292 292 292 291 290 290 289 288 288 287 287 287 288 288 288 288 288 288 289 289 289 289 290 290 290
308 309 309 308 307 305 303 302 302 302 302 303 303 302 300 299 298 298 298 298 298 297 296 296 296 295 294 293 292 292 291 291 291 291 291 292 292 292 292 291 291 290 289 288 288 287 287 287 287 287 288 287 287 288 288 288 288 289 289 289 290 290 290
308 308 307 305 304 303 301 301 301 301 302 302 301 300 299 298 298 298 298 298 297 297 296 295 295 294 292 292 291 291 291 291 291 290 290 291 291 291 291 290 290 288 288 287 287 287 287 287 287 288 288 288 287 287 288 288 289 289 289 289 290 290 290
Wind_Speed
11 9 9 9 8 8 7 7 7 8 8 7 7 7 7 7 9 10 10 11 11 11 10 11 11 11 11 11 11 10 9 8 7 7 6 5 5 4 4 3 2 2 2 3 3 3 3 3 3 4 2 2 3 2 1 1 1 3 4 5 6 7 8
12 10 10 11 10 9 9 8 8 8 8 7 7 7 8 10 12 13 13 13 12 12 11 11 11 10 10 10 11 11 11 11 9 8 7 7 6 5 5 4 4 4 2 1 2 2 3 3 4 4 4 6 6 2 2 2 3 4 5 6 7 8 8
13 11 12 12 12 11 11 10 9 9 8 7 7 8 11 13 14 14 15 15 15 14 14 13 12 11 11 11 11 11 11 12 11 11 10 8 7 6 6 5 5 4 3 2 4 5 4 3 4 4 6 7 6 4 4 5 5 6 7 8 8 8 8
16 13 14 14 14 13 12 12 11 10 9 8 8 9 12 13 13 13 15 16 16 16 16 16 15 14 13 13 12 12 11 12 12 11 11 10 9 9 8 7 6 5 4 3 5 6 5 5 5 5 7 8 8 8 7 6 8 9 8 8 7 6 7
19 17 16 16 15 15 14 14 13 12 11 9 9 10 11 11 11 12 13 14 15 16 16 17 17 16 15 15 14 14 13 13 12 11 11 11 10 10 9 8 7 6 5 5 5 6 5 6 7 6 7 8 8 8 8 9 11 9 7 7 6 5 5
21 21 19 18 17 16 15 15 15 14 14 12 11 11 11 10 9 10 11 12 13 14 14 15 16 16 16 16 16 16 15 14 13 13 12 11 11 10 9 7 7 6 5 5 5 6 6 6 7 7 8 9 8 9 10 10 10 9 8 6 4 4 5
22 23 22 21 19 17 16 16 15 15 15 15 14 13 12 11 9 8 9 10 11 11 12 13 14 15 15 16 16 16 15 14 13 13 12 11 11 10 9 7 7 6 5 5 6 6 6 6 6 7 8 9 9 11 11 10 9 8 7 5 4 6 6
24 24 24 23 21 19 17 17 15 14 14 14 14 13 13 11 10 8 8 8 9 9 9 9 11 12 13 14 14 14 14 12 12 11 10 10 10 9 9 8 6 6 5 5 5 5 6 6 6 7 8 7 8 8 9 10 11 11 10 9 8 7 6
25 25 25 24 22 20 18 17 16 14 14 14 15 14 13 12 10 9 8 7 7 8 7 7 8 8 10 12 12 12 11 10 10 9 8 8 8 7 7 6 5 4 5 4 4 4 4 4 5 6 7 7 7 6 6 8 9 9 9 8 7 4 3
26 26 27 25 23 21 19 18 17 16 15 15 15 15 14 13 11 10 9 8 8 7 7 6 6 6 7 9 10 10 9 8 8 8 7 6 6 5 5 5 4 3 4 3 3 3 3 3 3 4 5 7 7 6 6 7 7 8 7 7 8 6 4
27 27 28 26 24 23 21 20 19 18 17 17 16 16 15 14 13 11 10 9 8 7 6 5 5 5 6 7 8 8 8 7 7 7 6 6 5 5 4 5 4 3 3 3 2 2 2 2 2 3 4 5 6 7 8 8 9 10 10 10 10 9 9
28 29 29 28 26 25 24 22 22 21 19 18 18 17 16 15 14 13 12 10 9 8 6 5 4 4 5 6 7 7 7 6 6 6 5 5 5 4 4 4 4 3 3 3 2 2 2 1 2 2 3 4 6 8 9 10 9 9 10 11 12 11 12
29 30 30 30 29 27 26 25 24 23 21 20 20 19 18 17 16 15 14 12 11 9 7 6 4 3 3 4 5 5 6 6 5 5 5 4 4 4 3 3 3 2 3 2 2 2 2 2 2 2 3 4 6 7 9 11 11 12 12 13 15 15 14
32 32 33 33 32 31 29 27 26 25 24 23 22 21 20 19 18 17 16 15 13 11 9 8 6 5 3 3 4 4 5 5 5 5 5 5 5 4 4 3 3 3 3 2 2 2 2 2 2 2 3 4 6 7 8 11 13 15 14 11 12 15 14
34 34 34 35 35 34 32 30 28 27 26 26 25 24 23 21 20 19 18 17 15 13 11 9 8 7 5 4 4 4 4 4 5 5 6 6 6 6 6 5 5 4 4 4 4 4 4 3 3 3 3 4 6 7 8 10 12 15 16 13 12 14 13
37 35 34 35 36 36 35 33 31 29 28 28 27 26 25 23 22 21 21 19 17 14 12 10 9 8 6 6 5 4 4 4 4 4 5 6 7 8 8 7 7 6 6 6 6 6 5 5 4 4 5 5 6 8 8 10 12 15 18 17 14 14 14
38 37 35 35 36 37 36 34 33 31 30 29 29 28 27 24 23 23 22 20 18 16 14 12 10 8 7 6 6 5 4 3 3 3 4 6 7 8 8 9 9 8 8 8 8 7 7 7 6 6 7 6 6 8 8 10 12 14 17 19 17 16 16
36 37 36 35 35 35 35 34 33 33 32 31 30 30 28 26 25 25 23 21 19 17 15 12 10 9 7 6 5 3 2 2 3 4 5 6 7 7 8 9 9 9 9 9 9 9 8 9 9 9 9 9 8 8 8 10 12 13 16 19 19 17 16
33 35 35 34 33 33 33 33 33 33 33 33 32 31 30 29 27 26 24 22 19 17 14 12 11 9 7 5 2 0 2 4 6 7 8 8 8 8 9 9 10 10 10 10 10 10 10 11 11 11 11 11 11 10 10 11 12 13 15 18 19 18 16
31 32 33 32 32 31 31 31 32 33 33 30 29 30 31 30 29 27 24 21 19 17 15 13 11 9 6 4 1 2 5 7 8 9 10 10 10 10 10 10 10 10 11 11 12 12 12 12 12 12 12 12 12 12 12 12 13 13 15 16 18 17 16
29 31 31 30 29 29 30 31 31 32 32 29 27 30 33 32 29 27 24 21 19 16 15 13 11 8 5 2 1 3 6 7 7 8 9 10 10 11 11 10 11 11 11 12 13 14 14 14 14 14 14 14 14 15 14 14 13 14 15 15 16 16 16
25 28 30 29 28 28 29 30 30 31 32 31 31 33 33 30 28 26 23 21 19 17 16 14 11 8 5 3 2 3 5 5 5 7 8 9 10 11 11 11 12 13 13 15 16 17 17 17 17 18 17 15 16 16 17 16 16 15 15 15 15 15 15
19 23 27 28 29 29 29 29 29 30 32 33 33 34 33 30 29 28 25 22 20 18 16 13 10 8 5 3 2 2 2 3 5 6 7 8 10 11 12 12 13 16 17 17 16 16 17 18 19 20 20 19 18 18 18 18 18 18 17 16 15 14 15
13 17 22 25 27 28 28 28 28 30 32 32 33 34 33 32 31 29 25 23 20 18 14 11 9 7 5 3 1 0 2 3 5 6 7 8 9 11 12 13 14 16 17 17 16 17 18 18 18 19 20 21 21 21 21 20 20 19 19 19 17 16 15
11 14 18 22 24 25 26 27 27 30 31 31 32 33 33 33 31 28 25 22 19 16 13 11 9 6 4 2 1 1 2 3 4 5 7 8 10 11 13 14 14 15 17 18 19 17 17 17 17 19 20 21 22 23 24 24 24 22 20 20 19 18 17
12 12 15 18 22 23 25 26 27 29 31 31 33 34 34 33 30 27 24 21 18 16 14 12 9 7 4 2 2 2 2 3 5 6 8 9 10 12 13 14 15 15 16 18 18 16 16 16 17 18 19 20 21 21 23 25 26 26 26 24 23 22 20
14 12 13 16 19 22 23 25 27 28 30 32 35 36 35 32 29 27 24 20 17 16 14 12 10 6 3 2 3 3 3 5 6 7 9 11 12 13 14 15 15 16 16 17 16 16 16 16 17 18 18 18 18 19 20 22 24 25 27 28 27 27 25
14 12 12 15 19 21 22 25 26 28 32 35 37 36 34 32 29 26 22 19 17 16 14 11 8 5 3 3 4 5 5 7 8 9 11 13 13 14 15 16 16 17 17 17 17 18 18 17 18 19 19 20 20 20 20 21 22 23 24 25 26 26 25
14 12 12 16 19 21 23 25 27 31 34 35 36 35 33 31 29 25 21 19 18 16 13 10 7 5 4 4 5 6 7 8 9 10 12 14 15 15 15 16 17 17 18 18 18 20 21 20 20 20 21 22 22 21 21 20 21 22 23 25 26 27 27
13 13 14 17 20 22 24 26 30 33 35 35 35 35 34 31 27 24 22 21 18 15 12 9 7 6 6 6 7 8 8 9 10 12 14 16 16 15 17 20 21 19 19 19 19 21 22 22 22 22 23 24 24 24 23 21 20 21 23 25 27 28 30
13 14 15 18 22 24 25 27 30 33 36 37 37 37 34 30 27 24 22 20 16 11 9 8 7 7 7 7 8 10 10 9 11 13 14 14 15 15 18 23 25 23 21 20 21 23 23 23 23 23 24 25 25 25 23 21 21 21 21 23 24 26 28
14 15 17 20 23 25 26 28 30 32 33 33 32 31 31 29 27 25 21 17 13 9 6 7 8 9 8 8 10 12 11 10 12 13 13 14 15 15 17 20 23 24 23 22 22 22 22 22 23 24 25 26 27 26 23 22 22 22 22 22 22 23 25
15 16 17 21 24 25 26 28 30 32 33 32 30 29 28 26 25 22 17 13 11 9 7 7 9 9 9 10 13 14 13 12 13 13 14 14 16 17 18 18 19 21 22 22 23 23 23 23 24 25 26 26 27 26 24 23 24 24 25 25 25 24 25
15 16 17 21 24 25 26 30 33 34 34 34 32 30 27 23 19 17 14 12 11 10 9 8 8 8 9 12 15 17 16 14 14 14 15 16 17 19 19 19 20 21 22 23 23 24 25 26 27 27 27 28 29 29 27 27 28 28 28 28 27 26 26
15 16 18 22 25 26 27 30 33 34 34 33 31 29 25 20 15 12 12 13 11 10 9 8 8 9 12 14 16 16 16 16 16 16 15 16 18 19 20 22 24 24 23 23 25 27 29 30 30 30 30 31 32 32 32 32 30 29 28 27 26 25 25
15 17 20 22 23 24 25 27 29 31 31 31 29 26 21 16 13 13 14 14 10 9 9 9 10 11 12 12 12 13 14 15 16 16 16 17 19 21 23 24 24 23 24 26 29 31 31 32 31 30 31 32 33 33 33 31 30 29 27 26 26 26 25
14 18 21 22 21 21 23 26 28 28 28 25 22 20 18 16 15 14 12 10 7 6 6 7 8 8 9 10 11 13 15 18 20 20 20 20 21 22 24 24 24 26 28 30 31 32 32 31 30 30 30 31 31 30 29 28 27 27 26 25 25 26 27
Wind_Direction
188 181 174 167 161 154 141 125 114 116 117 107 100 91 84 87 96 101 103 107 106 104 102 97 92 87 82 80 76 75 75 70 72 79 73 58 62 58 40 46 22 340 267 259 265 274 283 270 273 287 292 330 326 299 243 233 237 266 290 296 282 268 271
196 186 178 174 168 162 154 144 129 124 122 113 102 90 90 97 100 99 97 97 98 97 98 96 93 89 85 82 78 76 77 77 74 77 75 61 56 50 30 27 19 4 350 358 359 323 303 281 282 287 293 312 323 315 267 290 290 285 284 281 276 265 263
205 194 184 180 174 170 164 157 148 140 134 124 112 99 102 107 103 95 89 88 90 92 92 90 86 82 77 76 77 77 78 77 74 74 74 67 61 54 41 34 23 6 350 8 10 348 324 292 282 288 293 299 310 311 304 307 304 300 294 285 280 268 255
215 204 193 187 181 177 173 167 162 155 149 141 128 116 115 114 105 92 85 84 87 89 87 84 80 76 74 73 73 73 73 71 69 69 68 63 60 55 49 45 38 28 17 6 358 347 329 307 297 288 288 293 294 295 298 305 308 303 294 287 282 273 262
221 215 206 198 190 183 180 175 170 166 162 156 144 134 130 124 110 97 88 84 84 86 86 83 78 75 74 75 74 73 71 68 66 66 61 58 56 52 48 45 42 40 30 16 0 348 334 318 308 292 293 302 297 291 297 305 306 301 290 287 280 271 270
224 223 217 210 201 192 187 182 176 173 171 167 159 151 146 138 122 107 96 88 85 86 87 84 78 73 73 77 78 77 76 72 70 70 66 61 58 54 50 45 40 37 27 14 360 347 341 326 313 298 296 302 297 291 295 296 298 297 290 285 279 281 288
224 226 224 218 211 203 196 192 186 181 178 174 166 161 157 153 141 123 108 95 89 87 86 84 78 72 73 79 81 79 78 77 74 74 72 66 61 55 51 47 42 38 24 12 2 352 348 333 321 314 304 297 291 288 288 284 285 287 283 278 286 298 300
227 229 228 225 219 213 205 201 196 189 184 177 170 166 164 164 157 142 125 110 101 94 87 83 79 72 71 80 83 79 78 77 74 73 71 67 62 56 50 46 44 39 28 17 8 358 354 339 322 319 313 303 295 291 289 285 281 276 273 275 282 288 292
231 232 232 230 226 221 214 210 205 198 190 180 173 171 170 171 168 159 144 132 122 114 105 94 88 79 71 79 85 83 81 80 77 76 75 70 64 60 53 47 46 42 30 22 15 4 357 338 316 310 308 304 300 298 297 291 285 280 275 278 284 280 284
235 235 234 234 233 228 223 218 213 207 198 186 180 177 176 177 176 172 162 151 141 132 123 111 101 91 78 79 85 85 84 85 84 81 79 76 69 64 56 48 49 45 30 25 20 9 2 342 313 297 294 296 294 293 296 294 291 289 284 287 292 285 290
236 237 236 237 237 234 229 224 219 214 205 195 189 185 182 182 182 181 177 166 157 149 137 123 110 98 84 78 79 78 77 80 83 79 74 70 64 59 52 45 46 42 26 21 15 1 356 342 314 289 280 279 280 279 283 288 289 286 284 286 286 281 292
234 236 236 237 238 237 234 229 224 219 212 204 198 194 191 190 189 189 187 179 171 165 156 140 123 109 92 79 78 75 67 69 77 75 65 58 49 44 39 33 34 29 15 8 4 353 345 325 300 285 272 267 269 271 274 278 279 278 279 287 290 289 295
235 234 234 237 239 239 237 233 229 222 216 211 204 201 199 198 198 197 193 189 184 179 175 168 158 141 106 83 81 73 59 58 67 65 58 52 46 36 23 12 5 2 358 352 344 338 327 312 295 277 270 266 264 266 270 271 273 276 279 284 289 292 297
235 233 232 235 238 240 238 235 233 226 219 215 210 206 204 204 204 202 198 195 191 188 183 178 172 160 141 110 85 64 48 46 47 42 38 36 34 24 11 355 338 326 322 315 314 313 307 305 296 273 266 271 267 266 269 271 276 283 285 284 288 294 299
235 233 232 233 236 238 238 236 235 230 222 218 215 211 209 208 205 203 199 196 192 189 184 179 173 160 150 137 109 77 57 45 31 23 21 17 11 5 358 347 336 325 311 301 298 298 298 296 290 277 270 273 272 269 269 272 277 285 290 293 297 299 303
236 236 234 234 236 237 237 236 235 233 227 222 218 215 213 211 207 202 198 195 191 187 184 181 175 165 157 143 125 104 81 60 35 19 10 2 355 350 346 340 334 328 319 310 301 298 297 294 290 284 278 273 272 271 269 270 272 279 287 294 299 301 303
238 238 237 237 238 238 238 236 235 234 231 225 220 217 215 213 208 202 197 193 190 187 185 182 176 170 163 147 132 119 97 70 42 17 355 347 342 338 335 330 327 323 318 311 305 300 296 293 293 290 285 279 271 270 269 270 271 275 283 289 293 296 299
241 242 242 240 240 240 239 237 235 233 232 227 222 219 216 212 208 203 198 194 190 187 185 181 175 172 169 161 148 127 84 38 3 345 334 330 327 323 319 315 313 314 311 306 302 299 294 293 292 288 286 284 278 274 272 270 271 274 279 284 289 292 293
246 245 245 245 244 242 240 239 236 233 232 227 220 217 215 212 207 203 199 195 190 186 181 177 174 173 175 177 174 11 358 352 338 329 325 323 318 313 309 305 303 302 300 297 295 293 290 289 287 285 282 281 278 275 271 269 269 270 274 280 285 288 288
252 251 250 248 247 244 242 241 238 234 229 221 216 217 216 211 207 203 199 194 189 185 181 177 179 181 183 190 204 338 341 340 332 327 327 324 319 314 307 303 300 296 293 292 291 290 290 288 284 282 280 279 278 275 271 269 266 265 268 273 279 284 286
257 257 256 253 250 246 244 244 240 235 228 221 220 222 217 209 204 201 197 192 187 185 183 182 186 189 190 203 291 335 337 338 336 338 340 337 333 326 317 309 302 297 292 288 286 285 285 284 283 282 280 278 278 277 275 273 269 265 263 265 269 275 281
263 261 258 256 253 250 247 246 241 236 230 224 220 217 211 204 202 199 194 191 187 185 186 188 193 198 201 218 285 323 335 349 2 3 356 350 346 339 330 321 313 309 306 300 294 289 282 277 275 275 274 274 275 275 276 275 274 271 267 264 264 267 271
271 266 260 255 253 251 248 245 239 231 226 220 213 208 202 201 203 200 193 189 185 184 187 191 197 202 205 219 259 318 353 21 25 14 359 348 343 340 335 326 319 319 319 315 309 301 294 285 277 272 270 269 269 271 272 273 271 270 270 268 265 264 266
274 266 261 255 251 247 244 240 233 224 218 214 208 203 199 198 199 196 190 186 183 181 183 187 192 198 200 201 213 291 11 15 11 3 354 345 337 334 333 327 322 321 320 317 311 304 299 294 287 280 275 270 267 265 264 266 267 267 267 267 264 261 261
277 262 258 254 248 242 238 233 226 217 212 207 201 196 194 194 193 190 186 183 180 178 179 182 187 189 189 200 255 319 345 354 354 349 346 342 336 333 329 325 322 318 315 317 315 306 299 294 289 285 281 277 272 267 262 260 261 262 264 265 264 261 258
284 263 255 251 246 239 232 225 218 212 207 201 195 191 191 190 188 186 183 180 179 179 180 181 182 184 194 240 302 316 321 334 337 339 341 339 334 331 328 324 321 315 312 315 313 304 297 297 294 290 287 283 278 274 269 264 261 260 261 262 262 261 260
288 271 257 250 244 236 227 220 215 209 202 195 190 188 187 184 181 181 180 179 181 182 182 180 179 185 207 268 304 310 314 324 331 334 336 335 331 328 326 323 318 314 312 311 308 302 301 302 301 298 294 289 283 279 276 273 270 266 262 259 259 260 261
288 275 259 251 243 232 223 217 211 204 198 193 189 185 182 178 176 176 178 181 184 184 183 178 177 191 225 272 296 306 310 317 323 325 327 329 327 322 322 320 316 312 310 308 305 304 303 302 302 301 296 291 287 283 277 273 270 268 263 259 257 258 260
284 270 255 246 237 226 220 214 207 201 196 190 185 181 178 175 174 175 178 183 184 183 182 180 186 209 237 271 294 303 304 307 313 315 319 322 320 314 314 316 313 308 304 302 301 302 303 302 301 299 296 292 290 285 280 275 271 267 264 261 259 259 261
278 263 247 238 231 224 218 211 204 199 192 185 180 177 175 174 176 178 181 184 185 183 183 188 202 220 241 274 296 300 299 298 301 306 311 314 312 307 307 312 313 307 299 296 296 297 299 299 297 296 294 292 289 286 283 282 278 273 268 266 265 263 262
273 257 240 232 228 223 215 208 202 196 190 184 179 176 174 175 177 180 182 183 183 183 188 203 222 235 250 277 299 303 298 293 294 300 305 306 304 300 302 310 314 309 298 292 293 295 295 294 293 292 292 290 288 285 285 285 284 282 278 273 270 268 266
267 252 235 229 227 221 212 205 198 191 186 179 174 173 175 175 175 178 180 181 183 187 199 224 238 245 257 283 301 302 295 289 291 296 300 301 302 300 298 302 308 306 300 296 297 296 294 291 288 288 288 287 285 283 284 285 284 284 283 280 277 274 272
260 246 232 228 224 216 208 202 192 185 181 176 173 176 177 174 172 175 178 185 196 206 221 237 243 249 265 291 302 300 293 289 291 297 301 302 302 301 299 298 301 303 300 296 294 293 291 288 285 284 284 282 280 280 283 284 282 281 281 280 278 276 275
254 241 229 225 219 210 204 199 189 181 177 174 172 172 170 169 171 176 184 198 213 224 235 243 248 260 280 296 301 298 292 288 291 298 302 302 301 301 302 301 301 300 296 291 290 290 289 287 284 283 280 276 275 277 279 280 280 279 278 277 276 274 272
251 237 225 221 214 203 196 191 185 178 173 169 166 164 163 165 169 181 199 210 220 236 248 256 266 278 289 297 301 300 296 294 298 300 299 299 299 299 301 302 301 298 294 290 290 290 289 289 286 282 278 275 274 275 276 275 275 275 273 272 271 270 267
244 228 217 210 201 189 181 176 172 168 163 159 159 160 161 165 172 189 208 214 221 241 255 267 280 290 299 306 311 313 311 311 312 308 299 296 297 298 300 299 296 293 291 291 291 291 290 289 286 281 277 276 276 277 276 274 272 270 267 265 264 263 261
229 213 202 191 178 166 160 158 155 153 152 152 156 160 167 177 185 194 204 210 217 239 265 286 301 312 319 319 317 317 316 315 315 311 304 298 296 297 297 295 293 294 295 295 295 294 292 289 286 282 280 281 281 280 277 273 269 266 262 259 257 256 255